Time,TemperatureF,DewpointF,PressureIn,WindDirection,WindDirectionDegrees,WindSpeedMPH,WindSpeedGustMPH,Humidity,HourlyPrecipIn,Conditions,Clouds,dailyrainin,SolarRadiationWatts/m^2,SoftwareType,DateUTC
2013-03-10 00:01:00,33.0,33.0,-100.00,NNW,340,4.0,7.0,100,0.00,,,0.50,1.000000,,2013-03-10 06:01:00,
2013-03-10 00:32:00,34.0,33.0,-100.00,NW,326,7.0,10.0,96,0.00,,,0.50,1.000000,,2013-03-10 06:32:00,
2013-03-10 00:42:00,34.0,33.0,-100.00,NW,326,7.0,10.0,96,0.00,,,0.50,1.000000,,2013-03-10 06:42:00,
2013-03-10 00:52:00,34.0,33.0,-100.00,NW,326,7.0,10.0,96,0.00,,,0.50,1.000000,,2013-03-10 06:52:00,
2013-03-10 01:02:00,34.0,33.0,-100.00,NW,326,7.0,10.0,96,0.00,,,0.50,1.000000,,2013-03-10 07:02:00,
2013-03-10 01:32:00,34.0,32.0,-100.00,NNW,340,7.0,12.0,93,0.00,,,0.50,1.000000,,2013-03-10 07:32:00,
2013-03-10 01:42:00,34.0,32.0,-100.00,NNW,340,7.0,12.0,93,0.00,,,0.50,1.000000,,2013-03-10 07:42:00,
2013-03-10 01:52:00,34.0,32.0,-100.00,NNW,340,7.0,12.0,93,0.00,,,0.50,1.000000,,2013-03-10 07:52:00,
2013-03-10 03:01:00,34.0,32.0,-100.00,NNW,340,7.0,12.0,93,0.00,,,0.50,1.000000,,2013-03-10 08:01:00,
2013-03-10 03:32:00,34.0,30.0,-100.00,NNW,341,9.0,15.0,86,0.00,,,0.50,1.000000,,2013-03-10 08:32:00,
2013-03-10 03:42:00,34.0,30.0,-100.00,NNW,341,9.0,15.0,86,0.00,,,0.50,1.000000,,2013-03-10 08:42:00,
2013-03-10 03:52:00,34.0,30.0,-100.00,NNW,341,9.0,15.0,86,0.00,,,0.50,1.000000,,2013-03-10 08:52:00,
2013-03-10 04:01:00,34.0,30.0,-100.00,NNW,341,9.0,15.0,86,0.00,,,0.50,1.000000,,2013-03-10 09:01:00,
2013-03-10 04:32:00,34.0,30.0,-100.00,NNW,347,11.0,20.0,84,0.00,,,0.50,1.000000,,2013-03-10 09:32:00,
2013-03-10 04:42:00,34.0,30.0,-100.00,NNW,347,11.0,20.0,84,0.00,,,0.50,1.000000,,2013-03-10 09:42:00,
2013-03-10 04:52:00,34.0,30.0,-100.00,NNW,347,11.0,20.0,84,0.00,,,0.50,1.000000,,2013-03-10 09:52:00,
2013-03-10 05:01:00,34.0,30.0,-100.00,NNW,347,11.0,20.0,84,0.00,,,0.50,1.000000,,2013-03-10 10:01:00,
2013-03-10 05:32:00,33.0,30.0,-100.00,North,349,8.0,21.0,87,0.00,,,0.50,1.000000,,2013-03-10 10:32:00,
2013-03-10 05:42:00,33.0,30.0,-100.00,North,349,8.0,21.0,87,0.00,,,0.50,1.000000,,2013-03-10 10:42:00,
2013-03-10 05:52:00,33.0,30.0,-100.00,North,349,8.0,21.0,87,0.00,,,0.50,1.000000,,2013-03-10 10:52:00,
2013-03-10 06:01:00,33.0,30.0,-100.00,North,349,8.0,21.0,87,0.00,,,0.50,1.000000,,2013-03-10 11:01:00,
2013-03-10 09:32:00,32.0,27.0,-100.00,NNW,348,11.0,20.0,83,-99.99,,,0.39,33.000000,,2013-03-10 14:32:00,
2013-03-10 09:42:00,32.0,27.0,-100.00,NNW,348,11.0,20.0,83,-99.99,,,0.39,33.000000,,2013-03-10 14:42:00,
2013-03-10 09:52:00,32.0,27.0,-100.00,NNW,348,11.0,20.0,83,-99.99,,,0.39,33.000000,,2013-03-10 14:52:00,
2013-03-10 10:01:00,32.0,27.0,-100.00,NNW,348,11.0,20.0,83,-99.99,,,0.39,33.000000,,2013-03-10 15:01:00,
2013-03-10 10:32:00,32.0,27.0,-100.00,NNW,345,13.0,20.0,80,0.00,,,0.37,84.000000,,2013-03-10 15:32:00,
2013-03-10 10:42:00,32.0,27.0,-100.00,NNW,345,13.0,20.0,80,0.00,,,0.37,84.000000,,2013-03-10 15:42:00,
2013-03-10 10:52:00,32.0,27.0,-100.00,NNW,345,13.0,20.0,80,0.00,,,0.37,84.000000,,2013-03-10 15:52:00,
2013-03-10 11:01:00,32.0,27.0,-100.00,NNW,345,13.0,20.0,80,0.00,,,0.37,84.000000,,2013-03-10 16:01:00,
2013-03-10 11:32:00,32.0,26.0,-100.00,NNW,347,11.0,19.0,78,0.00,,,0.35,165.000000,,2013-03-10 16:32:00,
2013-03-10 11:42:00,32.0,26.0,-100.00,NNW,347,11.0,19.0,78,0.00,,,0.35,165.000000,,2013-03-10 16:42:00,
2013-03-10 11:52:00,32.0,26.0,-100.00,NNW,347,11.0,19.0,78,0.00,,,0.35,165.000000,,2013-03-10 16:52:00,
2013-03-10 12:01:00,32.0,26.0,-100.00,NNW,347,11.0,19.0,78,0.00,,,0.35,165.000000,,2013-03-10 17:01:00,
2013-03-10 14:32:00,32.0,24.0,-100.00,North,10,8.0,16.0,73,-99.99,,,0.26,200.000000,,2013-03-10 19:32:00,
2013-03-10 14:42:00,32.0,24.0,-100.00,North,10,8.0,16.0,73,-99.99,,,0.26,200.000000,,2013-03-10 19:42:00,
2013-03-10 14:53:00,32.0,24.0,-100.00,North,10,8.0,16.0,73,-99.99,,,0.26,200.000000,,2013-03-10 19:53:00,
2013-03-10 15:02:00,32.0,24.0,-100.00,North,10,8.0,16.0,73,-99.99,,,0.26,200.000000,,2013-03-10 20:02:00,
2013-03-10 15:32:00,31.0,23.0,-100.00,North,5,11.0,20.0,73,0.00,,,0.14,188.000000,,2013-03-10 20:32:00,
2013-03-10 15:43:00,31.0,23.0,-100.00,North,5,11.0,20.0,73,0.00,,,0.14,188.000000,,2013-03-10 20:43:00,
2013-03-10 15:53:00,31.0,23.0,-100.00,North,5,11.0,20.0,73,0.00,,,0.14,188.000000,,2013-03-10 20:53:00,
2013-03-10 16:02:00,31.0,23.0,-100.00,North,5,11.0,20.0,73,0.00,,,0.14,188.000000,,2013-03-10 21:02:00,
2013-03-10 16:33:00,31.0,23.0,-100.00,North,2,11.0,19.0,72,0.00,,,0.08,152.000000,,2013-03-10 21:33:00,
2013-03-10 16:43:00,31.0,23.0,-100.00,North,2,11.0,19.0,72,0.00,,,0.08,152.000000,,2013-03-10 21:43:00,
2013-03-10 16:53:00,31.0,23.0,-100.00,North,2,11.0,19.0,72,0.00,,,0.08,152.000000,,2013-03-10 21:53:00,
2013-03-10 17:02:00,31.0,23.0,-100.00,North,2,11.0,19.0,72,0.00,,,0.08,152.000000,,2013-03-10 22:02:00,
2013-03-10 17:32:00,31.0,23.0,-100.00,North,358,10.0,19.0,72,0.00,,,0.07,125.000000,,2013-03-10 22:32:00,
2013-03-10 17:43:00,31.0,23.0,-100.00,North,358,10.0,19.0,72,0.00,,,0.07,125.000000,,2013-03-10 22:43:00,
2013-03-10 17:53:00,31.0,23.0,-100.00,North,358,10.0,19.0,72,0.00,,,0.07,125.000000,,2013-03-10 22:53:00,
2013-03-10 18:03:00,31.0,23.0,-100.00,North,358,10.0,19.0,72,0.00,,,0.07,125.000000,,2013-03-10 23:03:00,
2013-03-10 18:33:00,30.0,23.0,-100.00,NNE,15,9.0,21.0,74,0.00,,,0.03,61.000000,,2013-03-10 23:33:00,
2013-03-10 18:43:00,30.0,23.0,-100.00,NNE,15,9.0,21.0,74,0.00,,,0.03,61.000000,,2013-03-10 23:43:00,
2013-03-10 18:52:00,30.0,23.0,-100.00,NNE,15,9.0,21.0,74,0.00,,,0.03,61.000000,,2013-03-10 23:52:00,
2013-03-10 19:02:00,30.0,23.0,-100.00,NNE,15,9.0,21.0,74,0.00,,,0.03,61.000000,,2013-03-11 00:02:00,
2013-03-10 19:33:00,29.0,22.0,-100.00,North,358,10.0,20.0,75,0.00,,,0.02,16.000000,,2013-03-11 00:33:00,
2013-03-10 19:43:00,29.0,22.0,-100.00,North,358,10.0,20.0,75,0.00,,,0.02,16.000000,,2013-03-11 00:43:00,
2013-03-10 19:53:00,29.0,22.0,-100.00,North,358,10.0,20.0,75,0.00,,,0.02,16.000000,,2013-03-11 00:53:00,
2013-03-10 20:02:00,29.0,22.0,-100.00,North,358,10.0,20.0,75,0.00,,,0.02,16.000000,,2013-03-11 01:02:00,
2013-03-10 20:33:00,28.0,21.0,-100.00,North,2,9.0,21.0,75,0.00,,,0.01,2.000000,,2013-03-11 01:33:00,
2013-03-10 20:43:00,28.0,21.0,-100.00,North,2,9.0,21.0,75,0.00,,,0.01,2.000000,,2013-03-11 01:43:00,
2013-03-10 20:53:00,28.0,21.0,-100.00,North,2,9.0,21.0,75,0.00,,,0.01,2.000000,,2013-03-11 01:53:00,
2013-03-10 21:02:00,28.0,21.0,-100.00,North,2,9.0,21.0,75,0.00,,,0.01,2.000000,,2013-03-11 02:02:00,
2013-03-10 21:32:00,28.0,21.0,-100.00,NNE,24,9.0,20.0,74,0.00,,,0.00,1.000000,,2013-03-11 02:32:00,
2013-03-10 21:42:00,28.0,21.0,-100.00,NNE,24,9.0,20.0,74,0.00,,,0.00,1.000000,,2013-03-11 02:42:00,
2013-03-10 21:53:00,28.0,21.0,-100.00,NNE,24,9.0,20.0,74,0.00,,,0.00,1.000000,,2013-03-11 02:53:00,
2013-03-10 22:02:00,28.0,21.0,-100.00,NNE,24,9.0,20.0,74,0.00,,,0.00,1.000000,,2013-03-11 03:02:00,
2013-03-10 22:32:00,28.0,20.0,-100.00,NNE,19,8.0,17.0,73,0.00,,,0.00,1.000000,,2013-03-11 03:32:00,
2013-03-10 22:43:00,28.0,20.0,-100.00,NNE,19,8.0,17.0,73,0.00,,,0.00,1.000000,,2013-03-11 03:43:00,
2013-03-10 22:53:00,28.0,20.0,-100.00,NNE,19,8.0,17.0,73,0.00,,,0.00,1.000000,,2013-03-11 03:53:00,
2013-03-10 23:02:00,28.0,20.0,-100.00,NNE,19,8.0,17.0,73,0.00,,,0.00,1.000000,,2013-03-11 04:02:00,
2013-03-10 23:33:00,27.0,20.0,-100.00,NNE,14,8.0,14.0,73,0.00,,,0.00,1.000000,,2013-03-11 04:33:00,
2013-03-10 23:43:00,27.0,20.0,-100.00,NNE,14,8.0,14.0,73,0.00,,,0.00,1.000000,,2013-03-11 04:43:00,
2013-03-10 23:53:00,27.0,20.0,-100.00,NNE,14,8.0,14.0,73,0.00,,,0.00,1.000000,,2013-03-11 04:53:00,